Change the Weather History Date:

Saturday, December 28, 2013

  Actual Average Record
Temperature  
Mean Temperature 43 °F -  
Max Temperature 51 °F 34 °F 60 °F (1982)
Min Temperature 35 °F 20 °F -8 °F (1961)
Degree Days  
Heating Degree Days 22    
Moisture  
Dew Point 28 °F    
Average Humidity 59    
Maximum Humidity 75    
Minimum Humidity 38    
Precipitation  
Precipitation 0.00 in - - ()
Sea Level Pressure  
Sea Level Pressure 30.00 in    
Wind  
Wind Speed 11 mph (SSW)    
Max Wind Speed 16 mph    
Max Gust Speed 20 mph    
Visibility 10 miles    
Events      
Averages and records for this station are not official NWS values.
T = Trace of Precipitation, MM = Missing Value Source: NWS Daily Summary

Daily Weather History Graph

Daily Weather History Graph

Search for Another Location

Airport or City:

Trip Planner

Search our weather history database for the weather conditions in past years. The results will help you decide how hot, cold, wet, or windy it might be!

Date:

Astronomy

Dec. 28, 2013 Rise Set
Actual Time 7:28 AM CST 4:45 PM CST
Civil Twilight 6:57 AM CST 5:16 PM CST
Nautical Twilight 6:23 AM CST 5:51 PM CST
Astronomical Twilight 5:49 AM CST 6:24 PM CST
Moon 3:05 AM CST (12/28) 1:37 PM CST (12/28)
Length of Visible Light 10h 19m
Length of Day
9h 17m
Waning Crescent, 19% of the Moon is Illuminated
Dec 28
Waning Crescent
Jan 1
New
Jan 7
First Quarter
Jan 15
Full
Jan 23
Last Quarter

Hourly Weather History & Observations

Time (CST) Temp. Windchill Dew Point Humidity Pressure Visibility Wind Dir Wind Speed Gust Speed Precip Events Conditions
12:15 AM 39.2 °F 33.0 °F 30.2 °F 70% 30.14 in 10.0 mi SW 9.2 mph - N/A   Clear
12:35 AM 39.2 °F 33.0 °F 30.2 °F 70% 30.13 in 10.0 mi SW 9.2 mph - N/A   Clear
12:55 AM 39.2 °F 33.0 °F 30.2 °F 70% 30.13 in 10.0 mi SW 9.2 mph - N/A   Clear
1:15 AM 39.2 °F 33.0 °F 30.2 °F 70% 30.13 in 10.0 mi SSW 9.2 mph - N/A   Clear
1:35 AM 39.2 °F 33.0 °F 30.2 °F 70% 30.12 in 10.0 mi SSW 9.2 mph - N/A   Clear
1:55 AM 37.4 °F 30.3 °F 30.2 °F 75% 30.12 in 10.0 mi SSW 10.4 mph - N/A   Clear
2:15 AM 37.4 °F 30.3 °F 30.2 °F 75% 30.12 in 10.0 mi SSW 10.4 mph - N/A   Clear
2:35 AM 37.4 °F 29.3 °F 30.2 °F 75% 30.13 in 10.0 mi SSW 12.7 mph - N/A   Clear
2:55 AM 37.4 °F 29.3 °F 30.2 °F 75% 30.13 in 10.0 mi SSW 12.7 mph - N/A   Clear
3:15 AM 37.4 °F 30.3 °F 30.2 °F 75% 30.12 in 10.0 mi SSW 10.4 mph - N/A   Clear
3:35 AM 37.4 °F 30.3 °F 30.2 °F 75% 30.12 in 10.0 mi SSW 10.4 mph - N/A   Clear
3:55 AM 37.4 °F 29.8 °F 30.2 °F 75% 30.11 in 10.0 mi SSW 11.5 mph - N/A   Clear
4:15 AM 37.4 °F 29.3 °F 30.2 °F 75% 30.10 in 10.0 mi SSW 12.7 mph - N/A   Clear
4:35 AM 37.4 °F 29.8 °F 28.4 °F 70% 30.10 in 10.0 mi SSW 11.5 mph - N/A   Clear
4:55 AM 37.4 °F 30.3 °F 28.4 °F 70% 30.09 in 10.0 mi SSW 10.4 mph - N/A   Clear
5:15 AM 37.4 °F 29.8 °F 28.4 °F 70% 30.09 in 10.0 mi SSW 11.5 mph - N/A   Clear
5:35 AM 37.4 °F 29.8 °F 28.4 °F 70% 30.08 in 10.0 mi SSW 11.5 mph - N/A   Clear
5:55 AM 37.4 °F 30.3 °F 28.4 °F 70% 30.08 in 10.0 mi SSW 10.4 mph - N/A   Clear
6:15 AM 37.4 °F 30.3 °F 28.4 °F 70% 30.08 in 10.0 mi SSW 10.4 mph - N/A   Clear
6:35 AM 35.6 °F 28.0 °F 28.4 °F 75% 30.08 in 10.0 mi SSW 10.4 mph - N/A   Clear
6:55 AM 35.6 °F 27.1 °F 28.4 °F 75% 30.08 in 10.0 mi SSW 12.7 mph - N/A   Clear
7:15 AM 35.6 °F 27.5 °F 28.4 °F 75% 30.07 in 10.0 mi SSW 11.5 mph - N/A   Clear
7:35 AM 35.6 °F 28.0 °F 28.4 °F 75% 30.07 in 10.0 mi SSW 10.4 mph - N/A   Clear
7:55 AM 35.6 °F 28.6 °F 28.4 °F 75% 30.07 in 10.0 mi SSW 9.2 mph - N/A   Clear
8:15 AM 37.4 °F 31.4 °F 28.4 °F 70% 30.06 in 10.0 mi SSW 8.1 mph - N/A   Clear
8:35 AM 37.4 °F 29.8 °F 28.4 °F 70% 30.06 in 10.0 mi SSW 11.5 mph - N/A   Clear
8:55 AM 37.4 °F 29.8 °F 28.4 °F 70% 30.06 in 10.0 mi South 11.5 mph - N/A   Clear
9:15 AM 39.2 °F 32.0 °F 28.4 °F 65% 30.06 in 10.0 mi SSW 11.5 mph 16.1 mph N/A   Clear
9:35 AM 39.2 °F 31.6 °F 28.4 °F 65% 30.06 in 10.0 mi SSW 12.7 mph - N/A   Clear
9:55 AM 39.2 °F 30.5 °F 28.4 °F 65% 30.06 in 10.0 mi SSW 16.1 mph - N/A   Clear
10:15 AM 41.0 °F 33.5 °F 28.4 °F 61% 30.06 in 10.0 mi SSW 13.8 mph - N/A   Clear
10:35 AM 41.0 °F 33.1 °F 28.4 °F 61% 30.05 in 10.0 mi SSW 15.0 mph - N/A   Clear
10:55 AM 42.8 °F 36.6 °F 28.4 °F 57% 30.04 in 10.0 mi SSW 11.5 mph - N/A   Clear
11:15 AM 42.8 °F 35.4 °F 28.4 °F 57% 30.02 in 10.0 mi SSW 15.0 mph 19.6 mph N/A   Clear
11:35 AM 44.6 °F 38.4 °F 28.4 °F 53% 30.02 in 10.0 mi SSW 12.7 mph - N/A   Clear
11:55 AM 44.6 °F 38.1 °F 28.4 °F 53% 30.01 in 10.0 mi SSW 13.8 mph 19.6 mph N/A   Clear
12:15 PM 46.4 °F 40.1 °F 30.2 °F 53% 30.00 in 10.0 mi SSW 15.0 mph 19.6 mph N/A   Clear
12:35 PM 46.4 °F 40.7 °F 28.4 °F 50% 30.00 in 10.0 mi SSW 12.7 mph 17.3 mph N/A   Clear
12:55 PM 48.2 °F - 30.2 °F 50% 29.98 in 10.0 mi SSW 9.2 mph - N/A   Clear
1:15 PM 48.2 °F - 28.4 °F 46% 29.96 in 10.0 mi SSW 10.4 mph 16.1 mph N/A   Clear
1:35 PM 50.0 °F - 30.2 °F 47% 29.96 in 10.0 mi SSW 10.4 mph - N/A   Clear
1:55 PM 51.8 °F - 28.4 °F 41% 29.95 in 10.0 mi SSW 13.8 mph - N/A   Clear
2:15 PM 51.8 °F - 28.4 °F 41% 29.94 in 10.0 mi South 10.4 mph 18.4 mph N/A   Clear
2:35 PM 51.8 °F - 28.4 °F 41% 29.94 in 10.0 mi SSW 9.2 mph 18.4 mph N/A   Clear
2:55 PM 51.8 °F - 26.6 °F 38% 29.94 in 10.0 mi SSW 15.0 mph 19.6 mph N/A   Clear
3:15 PM 51.8 °F - 28.4 °F 41% 29.94 in 10.0 mi South 11.5 mph - N/A   Clear
3:35 PM 51.8 °F - 28.4 °F 41% 29.93 in 10.0 mi South 12.7 mph 17.3 mph N/A   Clear
3:55 PM 48.2 °F - 28.4 °F 46% 29.93 in 10.0 mi South 11.5 mph - N/A   Clear
4:15 PM 48.2 °F - 28.4 °F 46% 29.92 in 10.0 mi SSW 10.4 mph - N/A   Clear
4:35 PM 48.2 °F - 28.4 °F 46% 29.92 in 10.0 mi South 10.4 mph - N/A   Clear
4:55 PM 46.4 °F 41.5 °F 26.6 °F 46% 29.92 in 10.0 mi South 10.4 mph - N/A   Clear
5:15 PM 44.6 °F 39.7 °F 28.4 °F 53% 29.92 in 10.0 mi South 9.2 mph - N/A   Clear
5:35 PM 42.8 °F 36.2 °F 28.4 °F 57% 29.91 in 10.0 mi South 12.7 mph - N/A   Clear
5:55 PM 42.8 °F 37.5 °F 28.4 °F 57% 29.92 in 10.0 mi South 9.2 mph - N/A   Clear
6:15 PM 42.8 °F 37.0 °F 28.4 °F 57% 29.91 in 10.0 mi South 10.4 mph - N/A   Clear
6:35 PM 42.8 °F 37.0 °F 28.4 °F 57% 29.89 in 10.0 mi South 10.4 mph - N/A   Clear
6:55 PM 42.8 °F 36.6 °F 28.4 °F 57% 29.90 in 10.0 mi South 11.5 mph - N/A   Clear
7:15 PM 44.6 °F 38.1 °F 26.6 °F 49% 29.89 in 10.0 mi SSW 13.8 mph - N/A   Clear
7:35 PM 44.6 °F 38.4 °F 26.6 °F 49% 29.89 in 10.0 mi SSW 12.7 mph - N/A   Clear
7:55 PM 44.6 °F 38.1 °F 24.8 °F 46% 29.88 in 10.0 mi SSW 13.8 mph - N/A   Clear
8:15 PM 44.6 °F 38.1 °F 24.8 °F 46% 29.88 in 10.0 mi SSW 13.8 mph - N/A   Clear
8:35 PM 44.6 °F 38.1 °F 24.8 °F 46% 29.86 in 10.0 mi SSW 13.8 mph - N/A   Clear
8:55 PM 44.6 °F 38.1 °F 24.8 °F 46% 29.86 in 10.0 mi SSW 13.8 mph 19.6 mph N/A   Clear
9:15 PM 44.6 °F 38.8 °F 26.6 °F 49% 29.87 in 10.0 mi SSW 11.5 mph - N/A   Clear
9:35 PM 44.6 °F 39.2 °F 26.6 °F 49% 29.88 in 10.0 mi SW 10.4 mph - N/A   Clear
9:55 PM 42.8 °F 37.5 °F 26.6 °F 53% 29.88 in 10.0 mi SW 9.2 mph - N/A   Clear
10:15 PM 42.8 °F 38.0 °F 26.6 °F 53% 29.87 in 10.0 mi SW 8.1 mph - N/A   Clear
10:35 PM 42.8 °F 39.3 °F 26.6 °F 53% 29.86 in 10.0 mi SSW 5.8 mph - N/A   Clear
10:55 PM 41.0 °F 36.4 °F 26.6 °F 57% 29.86 in 10.0 mi SSW 6.9 mph - N/A   Clear
11:15 PM 41.0 °F 35.2 °F 26.6 °F 57% 29.85 in 10.0 mi SSW 9.2 mph - N/A   Clear
11:35 PM 39.2 °F 33.6 °F 26.6 °F 61% 29.84 in 10.0 mi SW 8.1 mph - N/A   Clear
11:55 PM 39.2 °F 33.0 °F 26.6 °F 61% 29.83 in 10.0 mi SSW 9.2 mph - N/A   Clear